sat.trackr.live / text

‹ back to catalog

STARLINK-37757

NORAD 69244 · 2026-117G

PAYLOAD ACTIVE UNKNOWN

§ Identity

Operator
Country
US
Launch date
2026-05-29
Launch site
AFETR
Launch vehicle
Mass (kg)
RCS (m²)

Purposes: comms

External: N2YO · Heavens-Above · Gunter

§ Orbital elements

Epoch: 2026-09-19T22:52:25.967712Z

Period
93.85 min
Inclination
53.1574°
Eccentricity
0.0001441
Mean motion
15.34403145 rev/d
Perigee alt
461.7 km
Apogee alt
463.7 km
Semi-major
6,840.8 km
B*
5.6191e-4
RAAN
156.2581°
Arg perigee
85.7389°
Mean anomaly
274.3778°
Rev number
1,758

§ Raw data

STARLINK-377571 69244U 26117G   26262.95307833  .00018658  00000+0  56191-3 0  99902 69244  53.1574 156.2581 0001441  85.7389 274.3778 15.34403145 17589

JSON: /api/v1/satellites/69244 · /tle

For live sub-satellite position, see the globe view (requires WebGL).

§ Visibility from observer

Set your observer location to see the next 7 days of passes ≥ 10°. The values pass through the URL so the page stays shareable.

No JS? Fill the form by hand. The geolocation button needs JavaScript.